Time,TemperatureF,DewpointF,PressureIn,WindDirection,WindDirectionDegrees,WindSpeedMPH,WindSpeedGustMPH,Humidity,HourlyPrecipIn,Conditions,Clouds,dailyrainin,SolarRadiationWatts/m^2,SoftwareType,DateUTC
2013-01-20 00:52:00,50.0,16.0,-100.00,East,99,9.0,11.0,25,0.00,,,0.00,0.000000,,2013-01-20 08:52:00,
2013-01-20 01:02:00,50.0,16.0,-100.00,East,99,9.0,11.0,25,0.00,,,0.00,0.000000,,2013-01-20 09:02:00,
2013-01-20 01:12:00,50.0,16.0,-100.00,East,99,9.0,11.0,25,0.00,,,0.00,0.000000,,2013-01-20 09:12:00,
2013-01-20 01:22:00,50.0,16.0,-100.00,East,99,9.0,11.0,25,0.00,,,0.00,0.000000,,2013-01-20 09:22:00,
2013-01-20 01:52:00,50.0,16.0,-100.00,East,98,10.0,12.0,25,0.00,,,0.00,0.000000,,2013-01-20 09:52:00,
2013-01-20 02:02:00,50.0,16.0,-100.00,East,98,10.0,12.0,25,0.00,,,0.00,0.000000,,2013-01-20 10:02:00,
2013-01-20 02:12:00,50.0,16.0,-100.00,East,98,10.0,12.0,25,0.00,,,0.00,0.000000,,2013-01-20 10:12:00,
2013-01-20 02:22:00,50.0,16.0,-100.00,East,98,10.0,12.0,25,0.00,,,0.00,0.000000,,2013-01-20 10:22:00,
2013-01-20 02:52:00,52.0,21.0,-100.00,East,89,10.0,12.0,29,0.00,,,0.00,0.000000,,2013-01-20 10:52:00,
2013-01-20 03:02:00,52.0,21.0,-100.00,East,89,10.0,12.0,29,0.00,,,0.00,0.000000,,2013-01-20 11:02:00,
2013-01-20 03:12:00,52.0,21.0,-100.00,East,89,10.0,12.0,29,0.00,,,0.00,0.000000,,2013-01-20 11:12:00,
2013-01-20 03:22:00,52.0,21.0,-100.00,East,89,10.0,12.0,29,0.00,,,0.00,0.000000,,2013-01-20 11:22:00,
2013-01-20 03:53:00,52.0,22.0,-100.00,East,85,11.0,13.0,30,0.00,,,0.00,0.000000,,2013-01-20 11:53:00,
2013-01-20 04:02:00,52.0,22.0,-100.00,East,85,11.0,13.0,30,0.00,,,0.00,0.000000,,2013-01-20 12:02:00,
2013-01-20 04:12:00,52.0,22.0,-100.00,East,85,11.0,13.0,30,0.00,,,0.00,0.000000,,2013-01-20 12:12:00,
2013-01-20 04:22:00,52.0,22.0,-100.00,East,85,11.0,13.0,30,0.00,,,0.00,0.000000,,2013-01-20 12:22:00,
2013-01-20 04:53:00,51.0,19.0,-100.00,ENE,78,9.0,12.0,28,0.00,,,0.00,0.000000,,2013-01-20 12:53:00,
2013-01-20 05:02:00,51.0,19.0,-100.00,ENE,78,9.0,12.0,28,0.00,,,0.00,0.000000,,2013-01-20 13:02:00,
2013-01-20 05:12:00,51.0,19.0,-100.00,ENE,78,9.0,12.0,28,0.00,,,0.00,0.000000,,2013-01-20 13:12:00,
2013-01-20 05:22:00,51.0,19.0,-100.00,ENE,78,9.0,12.0,28,0.00,,,0.00,0.000000,,2013-01-20 13:22:00,
2013-01-20 05:53:00,49.0,16.0,-100.00,ENE,73,6.0,11.0,27,0.00,,,0.00,0.000000,,2013-01-20 13:53:00,
2013-01-20 06:12:00,49.0,16.0,-100.00,ENE,73,6.0,11.0,27,0.00,,,0.00,0.000000,,2013-01-20 14:12:00,
2013-01-20 06:22:00,49.0,16.0,-100.00,ENE,73,6.0,11.0,27,0.00,,,0.00,0.000000,,2013-01-20 14:22:00,
2013-01-20 06:53:00,47.0,23.0,-100.00,ENE,74,7.0,10.0,39,0.00,,,0.00,0.000000,,2013-01-20 14:53:00,
2013-01-20 07:03:00,47.0,23.0,-100.00,ENE,74,7.0,10.0,39,0.00,,,0.00,0.000000,,2013-01-20 15:03:00,
2013-01-20 07:12:00,47.0,23.0,-100.00,ENE,74,7.0,10.0,39,0.00,,,0.00,0.000000,,2013-01-20 15:12:00,
2013-01-20 07:22:00,47.0,23.0,-100.00,ENE,74,7.0,10.0,39,0.00,,,0.00,0.000000,,2013-01-20 15:22:00,
2013-01-20 07:53:00,46.0,24.0,-100.00,ENE,67,6.0,10.0,41,0.00,,,0.00,2.000000,,2013-01-20 15:53:00,
2013-01-20 08:02:00,46.0,24.0,-100.00,ENE,67,6.0,10.0,41,0.00,,,0.00,2.000000,,2013-01-20 16:02:00,
2013-01-20 08:12:00,46.0,24.0,-100.00,ENE,67,6.0,10.0,41,0.00,,,0.00,2.000000,,2013-01-20 16:12:00,
2013-01-20 08:22:00,46.0,24.0,-100.00,ENE,67,6.0,10.0,41,0.00,,,0.00,2.000000,,2013-01-20 16:22:00,
2013-01-20 08:53:00,50.0,25.0,-100.00,ENE,76,5.0,9.0,38,0.00,,,0.00,52.000000,,2013-01-20 16:53:00,
2013-01-20 09:02:00,50.0,25.0,-100.00,ENE,76,5.0,9.0,38,0.00,,,0.00,52.000000,,2013-01-20 17:02:00,
2013-01-20 09:12:00,50.0,25.0,-100.00,ENE,76,5.0,9.0,38,0.00,,,0.00,52.000000,,2013-01-20 17:12:00,
2013-01-20 09:22:00,50.0,25.0,-100.00,ENE,76,5.0,9.0,38,0.00,,,0.00,52.000000,,2013-01-20 17:22:00,
2013-01-20 09:53:00,53.0,22.0,-100.00,ENE,64,8.0,12.0,30,0.00,,,0.00,212.000000,,2013-01-20 17:53:00,
2013-01-20 10:02:00,53.0,22.0,-100.00,ENE,64,8.0,12.0,30,0.00,,,0.00,212.000000,,2013-01-20 18:02:00,
2013-01-20 10:12:00,53.0,22.0,-100.00,ENE,64,8.0,12.0,30,0.00,,,0.00,212.000000,,2013-01-20 18:12:00,
2013-01-20 10:23:00,53.0,22.0,-100.00,ENE,64,8.0,12.0,30,0.00,,,0.00,212.000000,,2013-01-20 18:23:00,
2013-01-20 10:53:00,54.0,22.0,-100.00,NE,54,6.0,12.0,29,0.00,,,0.00,376.000000,,2013-01-20 18:53:00,
2013-01-20 11:02:00,54.0,22.0,-100.00,NE,54,6.0,12.0,29,0.00,,,0.00,376.000000,,2013-01-20 19:02:00,
2013-01-20 11:12:00,54.0,22.0,-100.00,NE,54,6.0,12.0,29,0.00,,,0.00,376.000000,,2013-01-20 19:12:00,
2013-01-20 11:22:00,54.0,22.0,-100.00,NE,54,6.0,12.0,29,0.00,,,0.00,376.000000,,2013-01-20 19:22:00,
2013-01-20 11:53:00,58.0,28.0,-100.00,ENE,60,6.0,10.0,31,0.00,,,0.00,482.000000,,2013-01-20 19:53:00,
2013-01-20 12:02:00,58.0,28.0,-100.00,ENE,60,6.0,10.0,31,0.00,,,0.00,482.000000,,2013-01-20 20:02:00,
2013-01-20 12:12:00,58.0,28.0,-100.00,ENE,60,6.0,10.0,31,0.00,,,0.00,482.000000,,2013-01-20 20:12:00,
2013-01-20 12:22:00,58.0,28.0,-100.00,ENE,60,6.0,10.0,31,0.00,,,0.00,482.000000,,2013-01-20 20:22:00,
2013-01-20 12:53:00,56.0,23.0,-100.00,ENE,77,10.0,13.0,28,0.00,,,0.00,536.000000,,2013-01-20 20:53:00,
2013-01-20 13:03:00,56.0,23.0,-100.00,ENE,77,10.0,13.0,28,0.00,,,0.00,536.000000,,2013-01-20 21:03:00,
2013-01-20 13:12:00,56.0,23.0,-100.00,ENE,77,10.0,13.0,28,0.00,,,0.00,536.000000,,2013-01-20 21:12:00,
2013-01-20 13:22:00,56.0,23.0,-100.00,ENE,77,10.0,13.0,28,0.00,,,0.00,536.000000,,2013-01-20 21:22:00,
2013-01-20 13:53:00,56.0,29.0,-100.00,ENE,72,12.0,16.0,36,0.00,,,0.00,531.000000,,2013-01-20 21:53:00,
2013-01-20 14:03:00,56.0,29.0,-100.00,ENE,72,12.0,16.0,36,0.00,,,0.00,531.000000,,2013-01-20 22:03:00,
2013-01-20 14:12:00,56.0,29.0,-100.00,ENE,72,12.0,16.0,36,0.00,,,0.00,531.000000,,2013-01-20 22:12:00,
2013-01-20 14:22:00,56.0,29.0,-100.00,ENE,72,12.0,16.0,36,0.00,,,0.00,531.000000,,2013-01-20 22:22:00,
2013-01-20 14:53:00,54.0,29.0,-100.00,ENE,78,11.0,16.0,38,0.00,,,0.00,469.000000,,2013-01-20 22:53:00,
2013-01-20 15:03:00,54.0,29.0,-100.00,ENE,78,11.0,16.0,38,0.00,,,0.00,469.000000,,2013-01-20 23:03:00,
2013-01-20 15:12:00,54.0,29.0,-100.00,ENE,78,11.0,16.0,38,0.00,,,0.00,469.000000,,2013-01-20 23:12:00,
2013-01-20 15:22:00,54.0,29.0,-100.00,ENE,78,11.0,16.0,38,0.00,,,0.00,469.000000,,2013-01-20 23:22:00,
2013-01-20 15:53:00,52.0,29.0,-100.00,East,98,10.0,14.0,41,0.00,,,0.00,356.000000,,2013-01-20 23:53:00,
2013-01-20 16:02:00,52.0,29.0,-100.00,East,98,10.0,14.0,41,0.00,,,0.00,356.000000,,2013-01-21 00:02:00,
2013-01-20 16:12:00,52.0,29.0,-100.00,East,98,10.0,14.0,41,0.00,,,0.00,356.000000,,2013-01-21 00:12:00,
2013-01-20 16:22:00,52.0,29.0,-100.00,East,98,10.0,14.0,41,0.00,,,0.00,356.000000,,2013-01-21 00:22:00,
2013-01-20 16:53:00,53.0,24.0,-100.00,ESE,104,7.0,12.0,32,0.00,,,0.00,195.000000,,2013-01-21 00:53:00,
2013-01-20 17:02:00,53.0,24.0,-100.00,ESE,104,7.0,12.0,32,0.00,,,0.00,195.000000,,2013-01-21 01:02:00,
2013-01-20 17:12:00,53.0,24.0,-100.00,ESE,104,7.0,12.0,32,0.00,,,0.00,195.000000,,2013-01-21 01:12:00,
2013-01-20 17:22:00,53.0,24.0,-100.00,ESE,104,7.0,12.0,32,0.00,,,0.00,195.000000,,2013-01-21 01:22:00,
2013-01-20 17:53:00,53.0,22.0,-100.00,East,97,6.0,9.0,29,0.00,,,0.00,13.000000,,2013-01-21 01:53:00,
2013-01-20 18:03:00,53.0,22.0,-100.00,East,97,6.0,9.0,29,0.00,,,0.00,13.000000,,2013-01-21 02:03:00,
2013-01-20 18:12:00,53.0,22.0,-100.00,East,97,6.0,9.0,29,0.00,,,0.00,13.000000,,2013-01-21 02:12:00,
2013-01-20 18:22:00,53.0,22.0,-100.00,East,97,6.0,9.0,29,0.00,,,0.00,13.000000,,2013-01-21 02:22:00,
2013-01-20 18:53:00,53.0,22.0,-100.00,East,92,6.0,8.0,29,0.00,,,0.00,0.000000,,2013-01-21 02:53:00,
2013-01-20 19:02:00,53.0,22.0,-100.00,East,92,6.0,8.0,29,0.00,,,0.00,0.000000,,2013-01-21 03:02:00,
2013-01-20 19:12:00,53.0,22.0,-100.00,East,92,6.0,8.0,29,0.00,,,0.00,0.000000,,2013-01-21 03:12:00,
2013-01-20 19:22:00,53.0,22.0,-100.00,East,92,6.0,8.0,29,0.00,,,0.00,0.000000,,2013-01-21 03:22:00,
2013-01-20 19:53:00,52.0,20.0,-100.00,East,93,8.0,10.0,28,0.00,,,0.00,0.000000,,2013-01-21 03:53:00,
2013-01-20 20:02:00,52.0,20.0,-100.00,East,93,8.0,10.0,28,0.00,,,0.00,0.000000,,2013-01-21 04:02:00,
2013-01-20 20:12:00,52.0,20.0,-100.00,East,93,8.0,10.0,28,0.00,,,0.00,0.000000,,2013-01-21 04:12:00,
2013-01-20 20:22:00,52.0,20.0,-100.00,East,93,8.0,10.0,28,0.00,,,0.00,0.000000,,2013-01-21 04:22:00,
2013-01-20 20:53:00,51.0,14.0,-100.00,East,95,11.0,13.0,22,0.00,,,0.00,0.000000,,2013-01-21 04:53:00,
2013-01-20 21:53:00,52.0,13.0,-100.00,East,98,10.0,12.0,21,0.00,,,0.00,0.000000,,2013-01-21 05:53:00,
2013-01-20 22:02:00,52.0,13.0,-100.00,East,98,10.0,12.0,21,0.00,,,0.00,0.000000,,2013-01-21 06:02:00,
2013-01-20 22:12:00,52.0,13.0,-100.00,East,98,10.0,12.0,21,0.00,,,0.00,0.000000,,2013-01-21 06:12:00,
2013-01-20 22:22:00,52.0,13.0,-100.00,East,98,10.0,12.0,21,0.00,,,0.00,0.000000,,2013-01-21 06:22:00,
2013-01-20 22:53:00,53.0,9.0,-100.00,East,96,9.0,12.0,17,0.00,,,0.00,0.000000,,2013-01-21 06:53:00,
2013-01-20 23:02:00,53.0,9.0,-100.00,East,96,9.0,12.0,17,0.00,,,0.00,0.000000,,2013-01-21 07:02:00,
2013-01-20 23:12:00,53.0,9.0,-100.00,East,96,9.0,12.0,17,0.00,,,0.00,0.000000,,2013-01-21 07:12:00,
2013-01-20 23:22:00,53.0,9.0,-100.00,East,96,9.0,12.0,17,0.00,,,0.00,0.000000,,2013-01-21 07:22:00,
2013-01-20 23:53:00,54.0,9.0,-100.00,ESE,109,9.0,12.0,16,0.00,,,0.00,0.000000,,2013-01-21 07:53:00,